timestamp,wind_dir_avg,wind_spd_avg,wind_spd_max_dir,wind_spd_gust,battery_voltage,lat,long
2023-10-12 00:04:01+00:00,278.0,2.23,279.0,2.56,12.41,47.59359,-54.27349
2023-10-12 00:14:01+00:00,256.0,1.29,259.0,1.63,12.41,47.59359,-54.27349
2023-10-12 00:24:01+00:00,232.0,0.47,217.0,0.68,12.41,47.59359,-54.27349
2023-10-12 00:34:01+00:00,289.0,1.51,292.0,1.76,12.41,47.59359,-54.27349
2023-10-12 00:44:01+00:00,305.0,1.41,304.0,1.66,12.41,47.59359,-54.27349
2023-10-12 00:54:01+00:00,280.0,0.96,273.0,1.3,12.41,47.59359,-54.27349
2023-10-12 01:04:01+00:00,285.0,2.82,285.0,3.26,12.41,47.59359,-54.27349
2023-10-12 01:14:01+00:00,288.0,2.59,296.0,3.42,12.41,47.59359,-54.27349
2023-10-12 01:24:01+00:00,12.0,1.37,0.0,1.62,12.41,47.59359,-54.27349
2023-10-12 01:34:01+00:00,352.0,1.81,349.0,1.98,12.41,47.59359,-54.27349
2023-10-12 01:44:01+00:00,10.0,1.57,8.0,1.79,12.41,47.59359,-54.27349
2023-10-12 01:54:01+00:00,332.0,1.63,332.0,2.0,12.41,47.59359,-54.27349
2023-10-12 02:04:01+00:00,332.0,1.97,326.0,2.45,12.41,47.59359,-54.27349
2023-10-12 02:14:01+00:00,348.0,1.6,347.0,1.73,12.41,47.59359,-54.27349
2023-10-12 02:24:01+00:00,346.0,1.85,345.0,2.05,12.41,47.59359,-54.27349
2023-10-12 02:34:01+00:00,339.0,1.79,342.0,1.98,12.41,47.59359,-54.27349
2023-10-12 02:44:01+00:00,334.0,1.85,334.0,2.06,12.41,47.59359,-54.27349
2023-10-12 02:54:01+00:00,327.0,1.26,326.0,1.59,12.41,47.59359,-54.27349
2023-10-12 03:04:01+00:00,346.0,1.27,340.0,1.45,12.41,47.59359,-54.27349
2023-10-12 03:14:00+00:00,340.0,1.47,328.0,1.74,12.41,47.59359,-54.27349
2023-10-12 03:24:00+00:00,344.0,2.14,341.0,2.33,12.41,47.59359,-54.27349
2023-10-12 03:34:00+00:00,339.0,1.78,338.0,1.93,12.41,47.59359,-54.27349
2023-10-12 03:44:00+00:00,340.0,1.83,337.0,2.09,12.41,47.59359,-54.27349
2023-10-12 03:54:00+00:00,352.0,1.83,348.0,2.01,12.41,47.59359,-54.27349
2023-10-12 04:04:00+00:00,331.0,2.04,331.0,2.2,12.41,47.59359,-54.27349
2023-10-12 04:14:00+00:00,348.0,1.45,349.0,1.68,12.41,47.59359,-54.27349
2023-10-12 04:24:00+00:00,341.0,1.28,348.0,1.46,12.41,47.59359,-54.27349
2023-10-12 04:34:00+00:00,322.0,1.55,322.0,1.74,12.41,47.59359,-54.27349
2023-10-12 04:44:00+00:00,331.0,1.69,332.0,1.88,12.41,47.59359,-54.27349
2023-10-12 04:54:00+00:00,322.0,2.25,329.0,2.98,12.41,47.59359,-54.27349
2023-10-12 05:04:00+00:00,318.0,2.01,315.0,2.2,12.41,47.59359,-54.27349
2023-10-12 05:14:01+00:00,320.0,1.51,322.0,1.67,12.41,47.59359,-54.27349
2023-10-12 05:24:01+00:00,303.0,1.59,304.0,1.8,12.41,47.59359,-54.27349
2023-10-12 05:34:01+00:00,292.0,1.69,298.0,1.9,12.41,47.59359,-54.27349
2023-10-12 05:44:01+00:00,305.0,1.68,305.0,1.94,12.41,47.59359,-54.27349
2023-10-12 05:54:01+00:00,305.0,2.09,303.0,2.41,12.41,47.59359,-54.27349
2023-10-12 06:04:01+00:00,303.0,2.55,302.0,2.72,12.41,47.59359,-54.27349
2023-10-12 06:14:01+00:00,300.0,2.45,298.0,2.83,12.33,47.59359,-54.27349
2023-10-12 06:24:01+00:00,307.0,2.31,313.0,2.56,12.33,47.59359,-54.27349
2023-10-12 06:34:01+00:00,327.0,2.1,329.0,2.34,12.33,47.59359,-54.27349
2023-10-12 06:44:01+00:00,321.0,1.99,314.0,2.24,12.33,47.59359,-54.27349
2023-10-12 06:54:01+00:00,314.0,2.24,311.0,2.46,12.33,47.59359,-54.27349
2023-10-12 07:04:01+00:00,319.0,2.14,319.0,2.45,12.33,47.59359,-54.27349
2023-10-12 07:14:00+00:00,333.0,1.69,328.0,1.96,12.33,47.59359,-54.27349
2023-10-12 07:24:00+00:00,325.0,1.83,327.0,2.09,12.33,47.59359,-54.27349
2023-10-12 07:34:00+00:00,334.0,1.71,332.0,1.96,12.33,47.59359,-54.27349
2023-10-12 07:44:00+00:00,331.0,1.83,328.0,2.11,12.33,47.59359,-54.27349
2023-10-12 07:54:00+00:00,337.0,2.02,333.0,2.76,12.33,47.59359,-54.27349
2023-10-12 08:04:00+00:00,331.0,2.66,329.0,3.06,12.33,47.59359,-54.27349
2023-10-12 08:14:01+00:00,335.0,2.83,332.0,3.3,12.33,47.59359,-54.27349
2023-10-12 08:24:01+00:00,342.0,2.99,340.0,3.32,12.33,47.59359,-54.27349
2023-10-12 08:34:01+00:00,351.0,3.19,350.0,3.57,12.33,47.59359,-54.27349
2023-10-12 08:44:01+00:00,32.0,2.5,34.0,3.01,12.33,47.59359,-54.27349
2023-10-12 08:54:01+00:00,33.0,3.29,35.0,3.62,12.33,47.59359,-54.27349
2023-10-12 09:04:01+00:00,23.0,3.42,31.0,3.67,12.33,47.59359,-54.27349
2023-10-12 09:14:00+00:00,354.0,3.19,350.0,3.47,12.25,47.59359,-54.27349
2023-10-12 09:24:00+00:00,350.0,3.64,354.0,3.99,12.25,47.59359,-54.27349
2023-10-12 09:34:00+00:00,358.0,3.18,359.0,3.41,12.25,47.59359,-54.27349
2023-10-12 09:44:00+00:00,351.0,3.17,355.0,3.42,12.25,47.59359,-54.27349
2023-10-12 09:54:00+00:00,358.0,3.05,1.0,3.27,12.25,47.59359,-54.27349
2023-10-12 10:04:00+00:00,346.0,3.28,343.0,3.46,12.25,47.59359,-54.27349
2023-10-12 10:14:01+00:00,350.0,2.64,353.0,3.03,12.25,47.59359,-54.27349
2023-10-12 10:24:01+00:00,325.0,2.52,323.0,2.82,12.25,47.59359,-54.27349
2023-10-12 10:34:01+00:00,348.0,2.43,353.0,2.82,12.25,47.59359,-54.27349
2023-10-12 10:44:01+00:00,339.0,3.18,334.0,3.48,12.25,47.59359,-54.27349
2023-10-12 10:54:01+00:00,338.0,2.72,340.0,3.12,12.25,47.59359,-54.27349
2023-10-12 11:04:01+00:00,1.0,2.7,4.0,2.93,12.25,47.59359,-54.27349
2023-10-12 11:14:01+00:00,349.0,2.38,352.0,2.65,13.92,47.59359,-54.27349
2023-10-12 11:24:01+00:00,7.0,2.33,20.0,2.75,13.92,47.59359,-54.27349
2023-10-12 11:34:01+00:00,343.0,2.7,343.0,2.95,13.92,47.59359,-54.27349
2023-10-12 11:44:01+00:00,333.0,2.44,335.0,2.73,13.92,47.59359,-54.27349
2023-10-12 11:54:01+00:00,355.0,2.54,357.0,2.7,13.92,47.59359,-54.27349
2023-10-12 12:04:01+00:00,18.0,1.57,15.0,1.89,13.92,47.59359,-54.27349
2023-10-12 12:14:01+00:00,25.0,1.5,30.0,1.98,14.08,47.59359,-54.27349
2023-10-12 12:24:01+00:00,49.0,1.79,43.0,2.08,14.08,47.59359,-54.27349
2023-10-12 12:34:01+00:00,39.0,1.96,37.0,2.2,14.08,47.59359,-54.27349
2023-10-12 12:44:01+00:00,51.0,1.8,52.0,2.0,14.08,47.59359,-54.27349
2023-10-12 12:54:01+00:00,38.0,1.8,46.0,2.14,14.08,47.59359,-54.27349
2023-10-12 13:04:01+00:00,32.0,2.27,39.0,2.46,14.08,47.59359,-54.27349
2023-10-12 13:14:01+00:00,32.0,2.18,24.0,2.54,13.68,47.59359,-54.27349
2023-10-12 13:24:01+00:00,33.0,2.35,46.0,2.73,13.68,47.59359,-54.27349
2023-10-12 13:34:01+00:00,20.0,2.24,19.0,2.5,13.68,47.59359,-54.27349
2023-10-12 13:44:01+00:00,50.0,3.25,53.0,3.51,13.68,47.59359,-54.27349
2023-10-12 13:54:01+00:00,47.0,3.65,46.0,3.85,13.68,47.59359,-54.27349
2023-10-12 14:04:01+00:00,51.0,3.35,49.0,3.71,13.68,47.59359,-54.27349
2023-10-12 14:14:00+00:00,45.0,4.12,45.0,4.53,13.76,47.59359,-54.27349
2023-10-12 14:24:00+00:00,45.0,4.39,44.0,4.69,13.76,47.59359,-54.27349
2023-10-12 14:34:00+00:00,47.0,4.12,47.0,4.35,13.76,47.59359,-54.27349
2023-10-12 14:44:00+00:00,49.0,3.84,48.0,4.29,13.76,47.59359,-54.27349
2023-10-12 14:54:00+00:00,50.0,3.76,51.0,4.13,13.76,47.59359,-54.27349
2023-10-12 15:04:00+00:00,42.0,3.84,40.0,4.22,13.76,47.59359,-54.27349
2023-10-12 15:14:00+00:00,38.0,3.22,39.0,3.39,13.84,47.59359,-54.27349
2023-10-12 15:24:00+00:00,35.0,3.08,38.0,3.34,13.84,47.59359,-54.27349
2023-10-12 15:34:00+00:00,23.0,3.32,27.0,3.58,13.84,47.59359,-54.27349
2023-10-12 15:44:00+00:00,23.0,3.6,23.0,3.93,13.84,47.59359,-54.27349
2023-10-12 15:54:00+00:00,26.0,3.3,29.0,3.69,13.84,47.59359,-54.27349
2023-10-12 16:04:00+00:00,40.0,4.39,38.0,4.81,13.84,47.59359,-54.27349
2023-10-12 16:14:01+00:00,43.0,4.61,36.0,5.0,14.32,47.59359,-54.27349
2023-10-12 16:24:01+00:00,44.0,5.01,45.0,5.4,14.32,47.59359,-54.27349
2023-10-12 16:34:01+00:00,45.0,4.55,42.0,5.08,14.32,47.59359,-54.27349
2023-10-12 16:44:01+00:00,44.0,4.96,42.0,5.51,14.32,47.59359,-54.27349
2023-10-12 16:54:01+00:00,50.0,5.34,52.0,5.94,14.32,47.59359,-54.27349
2023-10-12 17:04:01+00:00,50.0,5.24,49.0,6.04,14.32,47.59359,-54.27349
2023-10-12 17:14:01+00:00,48.0,5.24,47.0,5.97,13.68,47.59359,-54.27349
2023-10-12 17:24:01+00:00,50.0,5.49,49.0,6.24,13.68,47.59359,-54.27349
2023-10-12 17:34:01+00:00,54.0,5.97,53.0,6.73,13.68,47.59359,-54.27349
2023-10-12 17:44:01+00:00,56.0,5.62,57.0,6.16,13.68,47.59359,-54.27349
2023-10-12 17:54:01+00:00,54.0,5.4,54.0,5.79,13.68,47.59359,-54.27349
2023-10-12 18:04:01+00:00,50.0,4.31,48.0,4.82,13.68,47.59359,-54.27349
2023-10-12 18:14:00+00:00,48.0,4.97,47.0,5.43,13.84,47.59359,-54.27349
2023-10-12 18:24:00+00:00,51.0,4.61,50.0,5.27,13.84,47.59359,-54.27349
2023-10-12 18:34:00+00:00,55.0,4.55,52.0,5.11,13.84,47.59359,-54.27349
2023-10-12 18:44:00+00:00,53.0,4.73,52.0,5.41,13.84,47.59359,-54.27349
2023-10-12 18:54:00+00:00,51.0,4.39,52.0,4.93,13.84,47.59359,-54.27349
2023-10-12 19:04:00+00:00,58.0,4.89,57.0,5.58,13.84,47.59359,-54.27349
2023-10-12 19:14:01+00:00,52.0,4.08,52.0,4.7,13.37,47.59359,-54.27349
2023-10-12 19:24:01+00:00,46.0,3.76,47.0,4.2,13.37,47.59359,-54.27349
2023-10-12 19:34:01+00:00,43.0,4.17,45.0,4.56,13.37,47.59359,-54.27349
2023-10-12 19:44:01+00:00,47.0,4.26,48.0,4.85,13.37,47.59359,-54.27349
2023-10-12 19:54:01+00:00,47.0,4.95,47.0,5.42,13.37,47.59359,-54.27349
2023-10-12 20:04:01+00:00,44.0,5.52,43.0,5.98,13.37,47.59359,-54.27349
2023-10-12 20:14:00+00:00,39.0,5.23,47.0,6.2,13.44,47.59359,-54.27349
2023-10-12 20:24:00+00:00,39.0,4.24,33.0,4.76,13.44,47.59359,-54.27349
2023-10-12 20:34:00+00:00,44.0,5.12,45.0,5.76,13.44,47.59359,-54.27349
2023-10-12 20:44:00+00:00,54.0,4.44,53.0,4.85,13.44,47.59359,-54.27349
2023-10-12 20:54:00+00:00,63.0,3.21,63.0,3.59,13.44,47.59359,-54.27349
2023-10-12 21:04:00+00:00,67.0,3.4,69.0,3.7,13.44,47.59359,-54.27349
2023-10-12 21:14:00+00:00,73.0,3.59,76.0,4.01,12.81,47.59359,-54.27349
2023-10-12 21:24:00+00:00,79.0,2.29,79.0,2.99,12.81,47.59359,-54.27349
2023-10-12 21:34:00+00:00,65.0,2.52,60.0,2.81,12.81,47.59359,-54.27349
2023-10-12 21:44:00+00:00,65.0,2.76,66.0,2.96,12.81,47.59359,-54.27349
2023-10-12 21:54:00+00:00,76.0,2.44,72.0,3.43,12.81,47.59359,-54.27349
2023-10-12 22:04:00+00:00,78.0,2.71,77.0,3.36,12.81,47.59359,-54.27349
2023-10-12 22:14:01+00:00,83.0,2.44,86.0,3.17,12.49,47.59359,-54.27349
2023-10-12 22:24:01+00:00,78.0,1.9,70.0,2.89,12.49,47.59359,-54.27349
2023-10-12 22:34:01+00:00,87.0,1.23,74.0,2.02,12.49,47.59359,-54.27349
2023-10-12 22:44:01+00:00,88.0,2.5,81.0,2.91,12.49,47.59359,-54.27349
2023-10-12 22:54:01+00:00,73.0,2.01,77.0,2.39,12.49,47.59359,-54.27349
2023-10-12 23:04:01+00:00,88.0,2.07,82.0,2.5,12.49,47.59359,-54.27349
2023-10-12 23:14:01+00:00,73.0,1.81,68.0,2.33,12.41,47.59359,-54.27349
2023-10-12 23:24:01+00:00,61.0,2.15,67.0,2.64,12.41,47.59359,-54.27349
2023-10-12 23:34:01+00:00,72.0,1.79,65.0,2.79,12.41,47.59359,-54.27349
2023-10-12 23:44:01+00:00,72.0,1.49,80.0,1.79,12.41,47.59359,-54.27349
2023-10-12 23:54:01+00:00,57.0,1.95,56.0,2.25,12.41,47.59359,-54.27349
